Probability
0 0 0 0 0 0 0 0 0 0 0 0 0 0 0 0 0 0 0 0 0 0 0 0 0 0 0 0 0 0 0 0 0 0 0 0 0 0 0 0 0 0 0 0
0 0 0 0 0 0 0 0 0 0 0 0 0 0 0 0 0 0 0 0 0 0 0 0 0 0 0 0 0 0 0 0 0 0 0 0 0 0 0 0 0 0 0 0
0 0 0 0 0 0 0 0 0 0 0 0 0 0 0 0 0 0 0 0 0 0 0 0 0 0 0 0 0 0 0 0 0 0 0 0 0 0 0 0 0 0 0 0
0 0 0 0 0 0 0 0 0 0 0 0 0 0 0 0 0 0 0 0 0 0 0 0 0 0 0 0 0 0 0 0 0 0 0 0 0 0 0 0 0 0 0 0
0 0 0 0 0 0 0 0 0 0 0 0 0 0 0 0 0 0 0 0 0 0 0 0 0 0 0 0 0 0 0 0 0 0 0 0 0 0 0 0 0 0 0 0
0 0 0 0 0 0 0 0 0 0 0 0 0 0 0 0 0 0 0 0 0 0 0 0 0 0 0 0 0 0 0 0 0 0 0 0 0 0 0 0 0 0 0 0
0 0 0 0 0 0 0 0 0 0 0 0 0 0 0 0 0 0 0 0 0 0 0 0 0 0 0 0 0 0 0 0 0 0 0 0 0 0 0 0 0 0 0 0
0 0 0 0 0 0 0 0 0 0 0 0 0 0 0 0 0 0 0 0 0 0 0 0 0 0 0 0 0 0 0 0 0 0 0 0 0 0 0 0 0 0 0 0
0 0 0 0 0 0 0 0 0 0 0 0 0 0 0 0 0 0 0 0 0 0 0 0 0 0 0 0 0 0 0 0 0 0 0 0 0 0 0 0 0 0 0 0
0 0 0 0 0 0 0 0 0 0 0 0 0 0 0 0 0 0 0 0 0 0 0 0 0 0 0 0 0 0 0 0 0 0 0 0 0 0 0 0 0 0 0 0
0 0 0 0 0 0 0 0 0 0 0 0 0 0 0 0 0 0 0 0 0 0 0 0 0 0 0 0 0 0 0 0 0 0 0 0 0 0 0 0 0 0 0 0
0 0 0 0 0 0 0 0 0 0 0 0 0 0 0 0 0 0 0 0 0 0 0 0 0 0 0 0 0 0 0 0 0 0 0 0 0 0 0 0 0 0 0 0
0 0 0 0 0 0 0 0 0 0 0 0 0 0 0 0 0 0 0 0 0 0 0 0 0 0 0 0 0 0 0 0 0 0 0 0 0 0 0 0 0 0 0 0
0 0 0 0 0 0 0 0 0 0 0 0 0 0 0 0 0 0 0 0 0 0 0 0 0 0 0 0 0 0 0 0 0 0 0 0 0 0 0 0 0 0 0 0
0 0 0 0 0 0 0 0 0 0 0 0 0 0 0 0 0 0 0 0 0 0 0 0 0 0 0 0 0 0 0 0 0 0 0 0 0 0 0 0 0 0 0 0
0 0 0 0 0 0 0 0 0 0 0 0 0 0 0 0 0 0 0 0 0 0 0 0 0 0 0 0 0 0 0 0 0 0 0 0 0 0 0 0 0 0 0 0
0 0 0 0 0 0 0 0 0 0 0 0 0 0 0 0 0 0 0 0 0 0 0 0 0 0 0 0 0 0 0 0 0 0 0 0 0 0 0 0 0 0 0 0
0 0 0 0 0 0 0 0 0 0 0 0 0 0 0 0 0 0 0 0 0 0 0 0 0 0 0 0 0 0 0 0 0 0 0 0 0 0 0 0 0 0 0 0
0 0 0 0 0 0 0 0 0 0 0 0 0 0 0 0 0 0 0 0 0 0 0 0 0 0 0 0 0 0 0 0 0 0 0 0 0 0 0 0 0 0 0 0
0 0 0 0 0 0 0 0 0 0 0 0 0 0 0 0 0 0 0 0 0 0 0 0 0 0 0 0 0 0 0 0 0 0 0 0 0 0 0 0 0 0 0 0
0 0 0 0 0 0 0 0 0 0 0 0 0 0 0 0 0 0 0 0 0 0 0 0 0 0 0 0 0 0 0 0 0 0 0 0 0 0 0 0 0 0 0 0
0 0 0 0 0 0 0 0 0 0 0 0 0 0 0 0 0 0 0 0 0 0 0 0 0 0 0 0 0 0 0 0 0 0 0 0 0 0 0 0 0 0 0 0
0 0 0 0 0 0 0 0 0 0 0 0 0 0 0 0 0 0 0 0 0 0 0 0 0 0 0 0 0 0 0 0 0 0 0 0 0 0 0 0 0 0 0 0
0 0 0 0 0 0 0 0 0 0 0 0 0 0 0 0 0 0 0 0 0 0 0 0 0 0 0 0 0 0 0 0 0 0 0 0 0 0 0 0 0 0 0 0
0 0 0 0 0 0 0 0 0 0 0 0 0 0 0 0 0 0 0 0 0 0 0 0 0 0 0 0 0 0 0 0 0 0 0 0 0 0 0 0 0 0 0 0
0 0 0 0 0 0 0 0 0 0 0 0 0 0 0 0 0 0 0 0 0 0 0 0 0 0 0 0 0 0 0 0 0 0 0 0 0 0 0 0 0 0 0 0
Wind_Speed
5 8 9 8 8 7 6 8 10 9 5 6 13 19 19 14 12 14 14 13 12 12 10 9 8 9 9 10 11 12 12 11 10 8 7 7 6 5 4 3 4 4 3 3
7 12 9 5 5 6 8 10 11 8 2 7 14 20 19 13 12 12 13 13 13 12 11 11 10 10 11 11 12 12 12 12 11 8 7 5 5 4 3 3 4 4 4 3
14 4 5 7 7 8 10 11 11 9 8 6 10 14 8 4 6 8 10 11 12 12 13 13 13 12 11 12 12 10 12 12 11 10 7 5 4 3 4 5 4 4 4 3
12 7 6 9 10 10 10 7 8 8 8 6 5 10 9 5 7 5 6 7 9 11 12 12 13 13 13 11 10 11 11 11 11 11 10 11 8 6 6 5 4 4 4 4
9 8 9 11 10 10 5 1 4 5 7 10 6 9 9 3 4 3 3 4 6 9 11 13 13 13 12 11 10 10 11 11 11 11 11 10 8 6 5 5 6 5 4 4
5 4 7 6 2 6 5 4 3 3 5 9 5 8 9 3 3 6 6 4 4 7 10 11 11 11 11 10 10 10 11 11 11 11 11 11 10 8 8 7 6 5 4 4
9 7 5 5 6 6 7 6 5 6 6 5 2 7 10 6 6 8 10 8 5 5 9 11 13 13 13 13 12 11 12 12 12 12 11 11 10 10 9 8 7 6 5 4
12 10 11 9 9 8 9 9 7 5 5 3 4 9 7 5 7 7 8 7 5 5 8 11 13 13 13 14 14 13 13 13 12 12 11 10 9 7 6 7 6 6 5 4
12 8 5 6 4 7 8 9 6 7 5 7 7 7 9 4 4 3 3 3 3 3 6 9 12 13 13 14 15 14 14 13 12 12 11 10 9 8 7 7 6 5 5 4
8 7 5 5 4 1 4 6 6 7 7 8 8 8 6 4 2 2 2 2 2 2 4 7 10 12 12 13 13 13 14 13 12 12 10 8 9 9 8 7 7 6 6 5
10 8 6 7 11 12 9 8 8 6 6 7 7 6 4 6 4 5 5 4 4 3 4 5 8 10 11 11 12 13 13 13 12 12 11 10 9 8 8 7 7 6 6 6
11 8 7 7 2 4 11 12 12 9 8 7 8 9 2 6 6 7 8 6 5 4 4 5 7 8 10 12 12 13 13 13 12 11 11 10 9 8 8 8 7 7 7 6
12 9 8 6 6 6 9 10 12 10 7 9 11 10 2 5 7 8 9 9 7 6 5 5 6 8 10 11 12 12 12 12 11 11 10 10 9 9 9 8 7 7 7 7
10 9 12 10 4 8 10 11 13 14 11 13 16 18 14 13 13 12 11 10 9 7 6 6 6 7 8 9 10 11 11 11 10 10 10 10 10 9 8 7 7 7 7 7
9 10 11 10 4 6 9 12 16 18 18 16 17 19 21 18 15 14 12 10 9 8 7 6 6 6 7 8 9 10 10 10 10 10 10 10 9 8 7 7 7 6 7 7
9 8 8 9 7 8 9 13 16 19 19 21 22 23 20 16 13 13 12 10 9 8 7 6 5 6 7 8 8 9 9 9 10 10 10 8 8 7 7 7 6 7 7 8
11 9 8 8 5 5 13 16 18 15 15 16 19 20 15 12 11 11 10 9 9 8 6 5 5 5 6 6 7 8 8 8 8 9 8 8 7 7 7 6 6 7 8 8
12 10 6 4 6 12 9 4 11 16 17 17 18 18 15 13 10 10 10 10 9 6 5 5 4 4 4 4 5 6 6 7 7 7 7 7 7 6 6 6 7 8 7 8
9 10 7 6 10 12 8 6 9 12 14 15 18 19 15 7 6 8 6 7 6 5 4 3 3 3 3 4 5 6 6 6 6 7 7 6 6 6 6 7 7 7 8 9
5 8 7 7 8 11 8 5 6 5 11 9 12 13 9 6 6 4 4 4 3 2 2 2 3 3 4 4 5 6 6 6 6 6 5 5 5 6 6 7 7 7 8 9
9 9 11 12 12 11 4 6 10 9 7 2 7 9 9 10 7 1 4 3 3 3 3 3 4 3 3 4 5 5 4 4 4 3 4 4 5 6 6 7 7 7 8 9
14 12 12 10 11 12 8 12 13 8 1 3 5 7 8 9 4 3 3 3 4 4 4 4 4 4 3 4 4 4 3 2 2 3 4 4 5 5 5 7 7 8 9 10
12 12 9 12 11 3 12 12 9 3 5 5 5 6 7 7 6 6 5 5 5 5 4 4 4 4 3 3 3 3 2 2 2 3 4 5 5 6 6 7 8 8 8 8
9 5 8 10 11 8 9 11 9 8 8 7 6 5 7 8 7 6 6 5 5 5 4 4 4 4 3 2 2 2 2 2 3 4 5 5 6 6 7 6 7 7 8 9
9 10 9 12 9 7 10 13 13 10 9 8 6 6 7 7 7 7 6 5 5 5 4 4 4 3 2 2 2 2 2 3 4 5 5 6 6 7 7 8 8 9 10 10
9 11 12 12 10 9 8 6 7 8 8 8 7 6 6 7 7 6 5 5 5 5 5 4 3 3 2 2 2 2 3 3 4 5 6 5 6 6 7 8 9 11 14 18
Wind_Direction
179 216 227 229 231 256 262 267 276 284 296 274 275 280 282 277 254 250 247 237 226 221 206 188 187 183 179 181 182 180 177 176 173 172 175 175 176 170 173 174 172 180 188 196
197 230 236 220 202 218 239 261 275 286 267 274 290 285 282 276 258 254 251 240 228 216 198 190 187 183 183 180 180 180 181 179 181 181 179 178 168 169 165 161 169 180 189 196
221 222 184 187 198 220 238 254 273 287 301 257 295 286 274 268 262 256 250 244 233 219 206 193 190 187 184 183 182 181 181 182 182 175 163 147 142 150 171 176 176 184 191 195
232 209 180 205 219 225 251 245 256 269 286 294 319 300 297 301 287 261 248 234 230 218 211 198 192 189 188 184 179 182 180 181 179 177 179 181 186 189 190 183 178 179 190 195
213 194 200 220 228 216 245 151 221 256 270 279 250 265 284 296 289 312 299 255 236 220 211 202 197 192 188 180 178 181 179 181 181 185 188 192 194 190 174 175 179 183 184 195
221 194 219 223 199 200 155 151 161 211 247 257 244 251 280 278 302 316 317 307 259 223 211 205 196 190 185 180 180 181 181 183 183 187 190 196 193 184 178 184 185 190 188 196
212 209 197 179 157 160 188 221 243 232 223 243 164 246 261 288 294 296 301 303 294 234 210 201 194 191 188 185 184 184 185 186 186 190 195 198 197 193 193 192 194 196 198 203
205 211 193 194 206 190 198 221 239 266 268 275 206 245 265 304 295 286 283 285 280 238 213 206 201 197 194 190 188 188 190 190 189 192 195 197 194 195 197 198 199 203 208 210
205 206 152 187 203 194 184 215 247 267 273 271 252 258 282 266 266 274 288 292 281 247 216 210 204 202 199 194 193 193 192 192 192 193 194 194 193 196 196 196 202 207 211 209
202 200 161 153 151 194 237 174 178 217 247 256 256 254 255 249 275 320 322 326 320 267 224 212 208 205 202 199 196 196 197 197 194 194 194 194 195 196 196 197 202 207 212 213
199 199 162 180 204 193 173 188 209 218 248 261 269 255 231 253 276 290 296 302 298 274 241 218 211 206 202 199 196 197 199 198 195 196 195 194 196 196 198 202 206 209 215 220
195 211 208 203 164 257 216 211 202 219 224 237 268 272 226 252 269 272 281 288 287 272 255 234 215 204 201 201 199 199 199 199 198 195 197 198 195 195 202 207 209 212 220 227
173 196 200 190 191 188 214 217 219 232 249 237 247 262 178 247 262 262 270 284 287 276 260 239 217 208 205 203 202 201 201 200 197 194 197 198 198 200 207 210 212 217 226 234
180 201 217 226 216 178 198 205 208 214 233 243 244 262 268 270 275 279 282 284 285 277 262 245 226 216 210 206 203 202 202 199 195 194 199 202 203 205 209 212 215 221 229 238
196 217 224 243 231 191 210 210 206 217 232 248 259 263 270 276 284 287 288 286 281 272 258 243 231 222 211 206 203 202 200 195 193 197 202 206 205 206 209 213 219 227 235 243
200 216 209 227 224 222 236 232 223 228 238 247 260 267 271 280 281 277 276 275 270 268 259 248 236 226 215 207 203 199 199 194 193 200 205 203 203 205 211 218 225 234 241 247
186 192 199 227 194 213 243 230 223 223 225 235 248 258 271 273 269 271 273 267 262 263 259 246 234 224 216 208 200 197 194 189 195 203 205 202 204 208 215 222 232 240 248 254
184 192 206 206 186 235 251 211 223 232 240 236 247 261 266 270 277 274 264 259 258 256 250 240 227 217 209 198 190 185 181 186 194 203 205 204 206 213 219 229 240 249 255 259
200 189 191 201 233 253 255 218 200 215 248 241 242 254 262 268 273 255 234 234 246 254 246 237 219 200 183 175 170 168 175 184 195 206 209 209 212 220 228 239 249 258 262 265
183 203 201 202 225 243 247 180 169 192 258 243 229 241 239 198 239 250 177 193 211 213 198 179 163 158 157 152 159 169 179 190 204 210 215 218 224 232 240 249 258 264 266 270
174 192 209 217 234 254 239 142 156 210 258 182 205 219 204 207 237 125 140 167 178 174 162 154 150 148 145 149 162 177 187 205 211 213 223 230 236 244 252 259 263 268 271 273
184 189 203 210 228 242 168 158 196 231 203 192 210 214 212 218 224 203 195 187 175 167 158 154 148 140 138 154 170 184 203 207 205 218 234 244 251 256 256 262 268 271 273 275
208 205 200 206 226 249 171 198 216 230 220 218 218 217 209 213 219 213 205 195 184 174 162 157 152 145 146 165 185 200 201 195 214 235 249 258 263 264 263 266 271 274 273 274
212 211 214 231 244 238 222 231 238 232 236 238 231 220 205 214 213 207 200 192 181 171 165 160 161 166 168 172 194 206 202 215 235 252 263 267 269 271 271 268 266 269 271 274
203 182 210 235 248 254 243 233 235 235 236 236 231 225 218 211 208 202 194 188 179 167 161 166 175 179 181 185 209 221 227 234 250 262 268 271 270 272 274 272 268 269 268 270
192 191 203 232 228 223 234 223 222 220 223 218 210 211 209 202 199 190 184 175 166 162 160 167 176 182 189 210 237 247 246 248 257 266 272 274 275 275 276 279 280 265 264 275